Weather History for 78762 - December, 2012

Change the Weather History Date:

Wednesday, December 5, 2012

  Actual Average Record
Temperature  
Mean Temperature 72 °F -  
Max Temperature 80 °F 79 °F - ()
Min Temperature 64 °F 64 °F - ()
Cooling Degree Days 7    
Growing Degree Days 22 (Base 50)    
Moisture  
Dew Point 63 °F    
Average Humidity 75    
Maximum Humidity 94    
Minimum Humidity 43    
Precipitation  
Precipitation 0.01 in 0.04 in - ()
Sea Level Pressure  
Sea Level Pressure 29.98 in    
Wind  
Wind Speed 6 mph ()    
Max Wind Speed 13 mph    
Max Gust Speed -    
Visibility 7.2 miles    
Events Rain    
T = Trace of Precipitation, MM = Missing Value Source: Averaged Metar Reports

Daily Weather History Graph

Daily Weather History Graph

Search for Another Location

Airport or City:

Trip Planner

Search our weather history database for the weather conditions in past years. The results will help you decide how hot, cold, wet, or windy it might be!

Date:

Astronomy

Dec. 05, 2012 Rise Set
Actual Time 5:40 AM CST 5:14 PM CST
Civil Twilight 5:17 AM CST 5:37 PM CST
Nautical Twilight 4:51 AM CST 6:03 PM CST
Astronomical Twilight 4:25 AM CST 6:29 PM CST
Moon 11:09 PM CST (12/5) 10:51 AM CST (12/5)
Length of Visible Light 12h 19m
Length of Day
11h 34m
Waning Gibbous, 59% of the Moon is Illuminated
Dec 5
Waning Gibbous
Dec 6
Last Quarter
Dec 13
New
Dec 19
First Quarter
Dec 28
Full

Hourly Weather History & Observations

Time (CST) Temp. Heat Index Dew Point Humidity Pressure Visibility Wind Dir Wind Speed Gust Speed Precip Events Conditions
12:00 AM 67 °F - 62 °F 79% 29.87 in 12 mi East 4.6 mph - -   Scattered Clouds
12:00 AM 68.0 °F - 62.6 °F 83% 30.07 in 6.2 mi East 4.6 mph - N/A   Scattered Clouds
1:00 AM 66.2 °F - 62.6 °F 88% 30.04 in 6.2 mi East 5.8 mph - N/A   Scattered Clouds
2:00 AM 68.0 °F - 60.8 °F 78% 30.02 in 6.2 mi East 5.8 mph - N/A   Scattered Clouds
3:00 AM 68 °F - 62 °F 74% 29.85 in 12 mi ENE 8.1 mph - -   Scattered Clouds
3:00 AM 68.0 °F - 60.8 °F 78% 30.00 in 6.2 mi ENE 8.1 mph - N/A   Scattered Clouds
4:00 AM 68.0 °F - 60.8 °F 78% 30.01 in 6.2 mi East 4.6 mph - N/A   Scattered Clouds
5:00 AM 66.2 °F - 62.6 °F 88% 30.01 in 6.2 mi ENE 2.3 mph - N/A   Partly Cloudy
6:00 AM 64 °F - 61 °F 87% 29.88 in 12 mi North 3.5 mph - -   Scattered Clouds
6:00 AM 64.4 °F - 60.8 °F 88% 30.03 in 6.2 mi East 3.5 mph - N/A   Scattered Clouds
7:00 AM 69.8 °F - 60.8 °F 73% 30.05 in 6.2 mi ENE 8.1 mph - N/A   Scattered Clouds
9:00 AM 75 °F - 61 °F 52% 29.94 in 12 mi ESE 12.7 mph - -   Scattered Clouds
9:00 AM 75.2 °F - 60.8 °F 61% 30.09 in 6.2 mi ESE 12.7 mph - N/A   Scattered Clouds
10:00 AM 77.0 °F - 62.6 °F 61% 30.08 in 6.2 mi ESE 9.2 mph - N/A   Scattered Clouds
11:00 AM 78.8 °F - 62.6 °F 57% 30.05 in 6.2 mi ESE 12.7 mph - N/A   Mostly Cloudy
12:00 PM 81 °F - 62 °F 43% 29.84 in 12 mi ESE 9.2 mph - -   Overcast
12:00 PM 80.6 °F 81.8 °F 62.6 °F 54% 30.02 in 6.2 mi ESE 9.2 mph - N/A   Mostly Cloudy
12:50 PM 75.2 °F - 66.2 °F 73% 30.00 in 6.2 mi SW 6.9 mph - N/A   Mostly Cloudy
1:00 PM 75.2 °F - 66.2 °F 73% 30.00 in 6.2 mi WSW 6.9 mph - N/A   Mostly Cloudy
2:00 PM 78.8 °F - 64.4 °F 61% 29.98 in 6.2 mi SSE 5.8 mph - N/A   Mostly Cloudy
3:00 PM 76 °F - 68 °F 70% 29.82 in 12 mi SW 10.4 mph - -   Scattered Clouds
3:00 PM 77.0 °F - 68.0 °F 74% 29.97 in 6.2 mi SW 10.4 mph - N/A   Scattered Clouds
4:00 PM 71.6 °F - 66.2 °F 83% 29.98 in 6.2 mi WSW 6.9 mph - N/A   Mostly Cloudy
5:00 PM 71.6 °F - 66.2 °F 83% 29.99 in 3.1 mi West 8.1 mph - N/A   Scattered Clouds
5:45 PM 69.8 °F - 68.0 °F 94% 30.01 in 6.2 mi West 5.8 mph - N/A Rain Rain
6:00 PM 70 °F - 67 °F 88% 29.88 in 3 mi West 5.8 mph - - Rain Light Drizzle
6:00 PM 69.8 °F - 68.0 °F 94% 30.01 in 6.2 mi West 5.8 mph - N/A   Mostly Cloudy
7:00 PM 69.8 °F - 66.2 °F 88% 30.02 in 6.2 mi West 4.6 mph - N/A   Mostly Cloudy
9:00 PM 69 °F - 62 °F 71% 29.87 in 9 mi ESE 8.1 mph - -   Scattered Clouds
9:00 PM 69.8 °F - 60.8 °F 73% 30.04 in 6.2 mi ESE 8.1 mph - N/A   Mostly Cloudy
10:00 PM 68.0 °F - 60.8 °F 78% 30.04 in 6.2 mi ESE 6.9 mph - N/A   Mostly Cloudy
11:00 PM 69.8 °F - 60.8 °F 73% 30.02 in 6.2 mi ENE 11.5 mph - N/A   Mostly Cloudy